TimeEDT,TemperatureF,Dew PointF,Humidity,Sea Level PressureIn,VisibilityMPH,Wind Direction,Wind SpeedMPH,Gust SpeedMPH,PrecipitationIn,Events,Conditions,WindDirDegrees,DateUTC
12:52 AM,68.0,54.0,61,30.03,10.0,SW,9.2,-,N/A,,Mostly Cloudy,220,2012-10-05 04:52:00
1:52 AM,66.0,55.0,68,30.04,10.0,West,10.4,-,N/A,,Overcast,270,2012-10-05 05:52:00
2:52 AM,62.1,55.0,78,30.02,10.0,WSW,5.8,-,N/A,,Scattered Clouds,250,2012-10-05 06:52:00
3:52 AM,62.6,55.4,77,30.04,10.0,WSW,10.4,-,N/A,,Overcast,240,2012-10-05 07:52:00
4:52 AM,60.1,54.0,80,30.05,10.0,West,10.4,-,N/A,,Mostly Cloudy,260,2012-10-05 08:52:00
5:16 AM,60.8,51.8,72,30.07,10.0,WNW,12.7,-,N/A,,Overcast,290,2012-10-05 09:16:00
5:52 AM,57.9,48.9,72,30.07,10.0,WNW,11.5,-,N/A,,Overcast,290,2012-10-05 09:52:00
6:52 AM,57.0,46.0,67,30.07,10.0,West,8.1,-,N/A,,Overcast,270,2012-10-05 10:52:00
7:52 AM,55.0,48.0,77,30.09,10.0,West,8.1,-,0.00,Rain,Light Rain,270,2012-10-05 11:52:00
8:52 AM,54.0,48.9,83,30.10,10.0,West,8.1,-,0.00,Rain,Light Rain,260,2012-10-05 12:52:00
9:52 AM,53.1,48.9,86,30.08,10.0,SW,4.6,-,0.00,,Mostly Cloudy,220,2012-10-05 13:52:00
10:52 AM,53.6,50.0,88,30.08,10.0,SW,9.2,-,N/A,,Mostly Cloudy,230,2012-10-05 14:52:00
11:21 AM,53.6,50.0,88,30.08,10.0,SW,8.1,-,N/A,,Overcast,220,2012-10-05 15:21:00
11:38 AM,53.6,48.2,82,30.08,10.0,SW,9.2,-,N/A,,Overcast,230,2012-10-05 15:38:00
11:52 AM,53.6,48.2,82,30.08,10.0,SW,9.2,-,N/A,,Overcast,230,2012-10-05 15:52:00
12:52 PM,53.1,48.0,83,30.08,10.0,SW,10.4,-,N/A,,Overcast,230,2012-10-05 16:52:00
1:52 PM,53.1,48.0,83,30.06,10.0,SW,9.2,-,N/A,,Overcast,230,2012-10-05 17:52:00
2:17 PM,53.6,46.4,77,30.06,10.0,WSW,10.4,-,N/A,,Overcast,240,2012-10-05 18:17:00
2:37 PM,53.6,46.4,77,30.05,10.0,SW,8.1,-,N/A,,Overcast,220,2012-10-05 18:37:00
2:49 PM,53.6,46.4,77,30.05,10.0,WSW,10.4,-,N/A,,Overcast,240,2012-10-05 18:49:00
2:52 PM,54.0,46.9,77,30.05,10.0,SW,10.4,-,N/A,,Overcast,220,2012-10-05 18:52:00
3:00 PM,53.6,46.4,77,30.04,10.0,SW,9.2,-,N/A,,Overcast,230,2012-10-05 19:00:00
3:36 PM,53.6,46.4,77,30.03,10.0,WSW,12.7,-,N/A,,Overcast,250,2012-10-05 19:36:00
3:52 PM,54.0,46.9,77,30.02,10.0,WSW,10.4,-,N/A,,Overcast,250,2012-10-05 19:52:00
4:52 PM,53.1,46.0,77,30.02,10.0,West,8.1,-,N/A,,Overcast,260,2012-10-05 20:52:00
5:52 PM,51.1,46.0,83,30.03,8.0,SW,9.2,-,0.01,Rain,Light Rain,230,2012-10-05 21:52:00
6:52 PM,50.0,46.9,89,30.02,4.0,West,6.9,-,0.03,Rain,Rain,260,2012-10-05 22:52:00
7:52 PM,48.0,46.0,93,30.01,10.0,West,6.9,-,0.12,Rain,Light Rain,280,2012-10-05 23:52:00
8:52 PM,46.9,43.0,86,30.03,10.0,West,12.7,-,0.07,Rain,Light Rain,280,2012-10-06 00:52:00
9:05 PM,44.6,39.2,81,30.01,5.0,NW,15.0,20.7,0.02,Rain,Rain,310,2012-10-06 01:05:00
9:32 PM,42.8,39.2,87,30.05,5.0,West,9.2,-,0.05,Rain,Rain,280,2012-10-06 01:32:00
9:52 PM,43.0,39.9,89,30.04,7.0,West,5.8,-,0.09,Rain,Rain,270,2012-10-06 01:52:00
10:52 PM,43.0,41.0,93,30.02,5.0,Variable,3.5,-,0.04,Rain,Rain,0,2012-10-06 02:52:00
11:52 PM,43.0,42.1,97,30.01,10.0,SW,3.5,-,0.10,Rain,Light Rain,230,2012-10-06 03:52:00